Lid_Strength_Index
12 12 15 15 14 14 14 14 15 12 10 12 12 13 11 10 11 12 11 11 11 11 9 9 8 8 7 6 5 5 4 3 2 3 4 3 5 3 3 3 1 1 -0 -0
13 15 14 13 13 13 13 15 13 11 10 12 13 13 12 12 13 12 11 11 11 11 10 10 9 8 7 7 6 5 4 4 3 2 2 3 3 3 2 2 2 2 0 0
15 14 13 13 13 14 12 13 13 13 12 12 13 14 13 12 11 11 10 10 10 11 11 11 10 9 8 7 6 5 4 4 3 2 1 1 2 2 3 3 2 2 1 -0
14 13 13 13 14 13 15 11 12 13 15 16 13 17 14 13 13 12 12 11 11 11 11 10 10 9 8 7 6 4 4 4 3 2 2 2 2 4 4 4 2 2 1 0
14 14 14 14 13 12 13 10 13 15 16 16 16 17 14 14 14 13 12 11 11 10 10 10 10 9 8 7 6 4 3 4 4 2 2 1 1 1 2 3 3 2 2 0
13 12 13 12 11 11 10 12 16 16 16 18 18 17 15 15 15 13 12 12 11 10 10 9 9 8 8 7 5 4 2 3 3 2 1 1 1 1 2 3 4 5 3 1
15 15 13 12 13 11 12 13 16 17 18 18 18 18 14 14 12 12 13 12 11 10 10 10 10 9 9 8 7 6 4 4 3 2 1 1 1 1 2 2 4 5 6 2
18 16 14 13 13 13 14 14 17 21 20 19 16 18 15 12 11 11 11 11 11 10 10 10 9 9 9 8 7 7 5 5 4 2 1 1 1 1 1 2 4 5 5 2
17 16 14 13 12 11 14 15 15 18 20 22 18 16 13 12 12 12 12 12 12 12 11 11 10 9 9 9 8 8 7 5 5 4 3 3 1 1 2 1 4 5 4 4
17 18 15 13 11 12 12 13 16 16 22 22 19 19 17 15 15 13 13 14 13 12 12 11 10 10 10 9 8 8 8 7 6 6 5 4 4 3 3 3 5 6 6 6
15 17 15 14 13 13 13 14 16 16 18 20 21 18 14 14 14 14 14 13 13 13 12 12 11 10 10 10 9 9 8 8 7 7 6 5 5 4 4 5 6 7 8 8
14 16 18 15 12 11 12 13 15 17 20 17 18 18 12 12 13 13 14 13 13 13 13 12 11 11 11 11 10 10 9 9 8 8 7 7 6 6 6 7 8 9 10 10
14 17 19 16 14 13 14 13 13 15 16 18 19 17 11 12 13 12 14 14 13 13 13 13 13 12 12 12 12 11 10 10 9 8 8 8 8 8 8 9 10 10 12 12
12 16 18 17 16 15 16 14 13 16 18 17 17 16 15 14 14 13 14 14 13 14 14 14 14 13 13 12 12 12 11 10 9 9 9 10 10 10 10 11 11 12 12 12
13 18 18 16 16 16 16 17 16 18 17 18 17 18 16 14 14 14 14 15 15 14 14 14 14 14 13 13 12 12 11 11 10 10 11 12 12 12 12 12 13 12 13 13
15 18 21 20 17 16 16 15 15 17 17 18 17 18 14 12 13 14 14 15 16 16 16 15 15 14 14 14 13 12 11 11 10 12 13 12 12 13 13 13 13 13 13 13
17 18 20 19 20 19 18 16 15 14 15 16 18 14 14 15 14 14 15 16 16 16 17 16 17 16 15 15 14 14 13 12 13 13 14 13 14 14 14 15 13 13 14 15
21 20 21 20 20 19 12 14 14 14 13 16 16 16 15 15 14 14 15 16 16 17 17 17 17 17 17 16 16 15 14 15 15 15 14 15 14 14 14 14 15 15 14 15
16 18 20 21 20 16 15 15 14 15 13 12 14 14 14 13 13 14 15 15 16 17 17 17 17 18 17 17 16 16 16 15 16 16 15 15 16 16 15 15 16 16 16 16
17 17 18 23 21 20 14 13 13 13 16 13 13 13 14 14 16 15 15 16 17 17 17 18 18 18 19 18 17 17 18 18 18 17 16 16 16 16 16 15 15 15 15 16
20 20 21 21 20 18 14 13 13 16 14 13 13 13 14 15 14 14 14 17 17 18 18 18 18 20 21 20 18 19 19 20 19 17 17 17 16 16 15 16 15 15 15 15
22 23 24 25 23 21 14 15 14 11 14 13 13 13 14 14 14 14 15 16 17 18 18 19 20 20 22 22 21 21 22 22 20 18 18 18 17 17 16 16 16 16 16 16
20 17 17 18 16 14 13 12 11 12 12 13 13 13 13 14 14 14 15 16 16 18 18 19 19 20 21 22 22 21 23 22 21 19 19 18 17 17 17 16 16 15 15 15
19 19 17 18 14 15 14 12 13 12 12 12 13 13 13 14 15 15 16 16 17 18 19 20 20 20 21 22 22 23 22 21 20 19 19 17 16 16 15 15 15 14 14 14
17 18 18 18 15 16 15 15 11 12 12 14 14 13 13 14 15 15 15 15 16 18 20 21 21 21 22 22 22 23 23 22 19 19 18 17 15 14 14 14 13 14 13 13
18 16 17 15 12 12 12 13 13 12 12 13 14 16 15 14 14 15 15 15 16 17 19 20 20 21 22 22 23 23 24 22 20 19 18 18 16 15 14 14 14 13 13 13